Volver al catálogo

COSMOS 2251 DEB

ActivoLEO
NORAD 34273·DEBRIS·🇷🇺 Russia

Lanzado Jun 16, 1993 desde Plesetsk Cosmodrome

Loading…

Próximos Pases (próximas 24 horas)

TLE

ActualizadoSource: Space-Track

Época: Sep 14, 2026, 19:46 UTC

1 34273U 93036LT  26257.82412787  .00002165  00000-0  42543-3 0  9996
2 34273  74.0327 278.5580 0016284 320.5093 213.8183 14.63221335926577

Sigue COSMOS 2251 DEB en tiempo real con AllMySat

Download on the App Store